Pago Pago International (NSTU)

Aerodrome — Elev 32
American Samoa
S014.19.51.600 W170.42.37.800
Loading chart...

Current Weather

NSTU 230250Z VRB05KT 12SM SCT018CB BKN038 BKN110 29/26 A2976 RMK CB W SLP078 8/370 T02910255 57008

Published 33 minutes ago

Airport Activity

Loading chart...
Loading chart...

Positions

CallsignRadio Name / Freq / Voice Room / TypeFrequencyVoice RoomType
NZZO_FSS Auckland Radio
128.900
nzzo_fss
128.900nzzo_fss
NSFA_CTR Faleolo Control
123.800
nsfa_ctr
123.800nsfa_ctr
NSFA_APP Faleolo Approach
126.900
nsfa_app
126.900nsfa_app
NSTU_TWR Pago Pago Tower
118.600
nstu_twr
118.600nstu_twr
UNICOM NZZO UNICOM
122.800
unicom_nzzo
122.800unicom_nzzo